Regional Weather Roundup
Issued by NWS

Home | Current Version | Previous Version | Text Only | Print | Product List | Glossary On
Versions: 1 2 3 4 5 6 7 8 9 10 11 12 13 14 15 16 17 18 19 20 21 22 23 24 25 26 27 28 29 30 31 32 33 34 35 36 37 38 39 40 41 42 43 44 45 46 47 48 49
000
ASUS45 KBOU 012310
RWRCO

WEATHER ROUNDUP FOR COLORADO
NATIONAL WEATHER SERVICE DENVER/BOULDER CO
500 PM MDT WED JUL 01 2015

NOTE: "FAIR" INDICATES FEW OR NO CLOUDS BELOW 12000 FEET WITH NO
SIGNIFICANT WEATHER AND/OR OBSTRUCTIONS TO VISIBILITY.

COZ001>005-013-030-031-020000-
...NORTHWEST COLORADO...

CITY           SKY/WX    TMP DP  RH WIND       PRES   REMARKS
CRAIG          MOSUNNY   87  46  24 CALM      30.15F
HAYDEN         MOSUNNY   82  45  26 W3        30.19F
MEEKER         MOSUNNY   87  48  25 SE7       30.18F
MOUNT WERNER   NOT AVBL
STEAMBOAT SPGS MOSUNNY   81  46  29 CALM      30.22F
WALDEN         PTSUNNY   70  45  40 CALM      30.34F
$$

COZ006>008-011-020000-
...WEST CENTRAL VALLEYS...

CITY           SKY/WX    TMP DP  RH WIND       PRES   REMARKS
GRAND JUNCTION PTSUNNY   96  45  17 W6        29.98F
MONTROSE       PTSUNNY   93  45  19 NW10      30.09F
EAGLE          PTSUNNY   82  48  30 E14G20    30.20F
RIFLE          MOSUNNY   92  45  19 VRB3      30.06F
DELTA          PTSUNNY   98  41  14 S3        30.03S
NUCLA          PTSUNNY   91  41  17 NE7       30.11F
$$

COZ017>023-064>068-020000-
...SOUTHWEST COLORADO...

CITY           SKY/WX    TMP DP  RH WIND       PRES   REMARKS
DURANGO        PTSUNNY   85  51  31 N14       30.14R
CORTEZ         SUNNY     94  45  18 VRB3      30.07F
PAGOSA SPRINGS TSTM      60  50  69 NE18G31   30.31R
TELLURIDE      PTSUNNY   79  42  26 NW9G18    30.40S
WOLF CREEK PAS NOT AVBL
$$

COZ009-010-012-014-032>034-037-058>063-020000-
...CENTRAL COLORADO...

CITY           SKY/WX    TMP DP  RH WIND       PRES   REMARKS
ASPEN          PTSUNNY   82  47  29 VRB5      30.27F
BUENA VISTA    CLOUDY    67  56  68 E12G17    30.33R
COPPER MTN     PTSUNNY   61  39  44 W21G28    30.66F
BERTHOUD PASS  CLOUDY    45  36  70 MISG      30.72F THUNDER
COTTONWOOD PAS NOT AVBL
GUNNISON       PTSUNNY   81  46  30 N15       30.29F
KREMMLING      PTSUNNY   81  37  21 N6        30.28F
LEADVILLE      CLOUDY    69  40  34 N3        30.46F
SALIDA         CLOUDY    76  51  42 E8G20     30.34S
SUNLIGHT       MOSUNNY   72  45  37 CALM      30.57F
WILKERSON PASS FOG       46  46 100 E8        30.65R THUNDER VSB 1
$$

COZ069>075-020000-
...SAN LUIS VALLEY/SANGRE DE CRISTO MOUNTAINS...

CITY           SKY/WX    TMP DP  RH WIND       PRES   REMARKS
ALAMOSA        PTSUNNY   83  47  28 E5        30.22S
LA VETA PASS   CLOUDY    63  45  51 MISG      30.50F
SAGUACHE       CLOUDY    70  52  52 CALM      30.29S
$$

COZ035-036-038>040-020000-
...NORTHERN COLORADO FRONT RANGE...

CITY           SKY/WX    TMP DP  RH WIND       PRES   REMARKS
DENVER INTL AP TSTM      73  60  63 SW10      30.16R
DMNS CITY PARK   N/A     79  56  45 NW5G15    30.15R
AURORA         LGT RAIN  74  60  60 W9        30.19R
FRONT RANGE AP RAIN      75  61  60 NW10G18   30.19R
ERIE MUNI ARPT CLOUDY    82  49  31 N8        30.13F
BOULDER MUN AP CLOUDY    81  54  39 N3        30.14F
CENTENNIAL     CLOUDY    74  58  57 S13       30.20R
BROOMFIELD     PTSUNNY   81  54  39 NW7       30.18R
FORT COLLINS   CLOUDY    68  55  64 E14       30.13F
LONGMONT       CLOUDY    78  56  46 N17G26    30.16R
$$

COZ041-046-047-076>085-087-088-020000-
...PIKES PEAK/PALMER DIVIDE AND SOUTHERN FOOTHILLS...

CITY           SKY/WX    TMP DP  RH WIND       PRES   REMARKS
COLO. SPRINGS  TSTM      72  56  57 NW12      30.25R
A. F. ACADEMY  TSTM      63  59  88 NW8       30.31R
ELLICOTT       CLOUDY   N/A N/A N/A E3        30.19R THUNDER
FALCON         RAIN      65  57  76 N21G30    30.32R
FORT CARSON    TSTM      72  60  65 N18       30.20R
LIMON          PTSUNNY   80  57  45 S6        30.12F
MONUMENT HILL  TSTM      57  52  82 S12       30.32R
TRINIDAD       PTSUNNY   90  49  24 E9        30.13F
$$

COZ042>045-048>051-090-091-020000-
...NORTHEAST COLORADO...

CITY           SKY/WX    TMP DP  RH WIND       PRES   REMARKS
GREELEY ARPT   CLOUDY    70  57  64 N6G18     30.13R THUNDER
AKRON          MOSUNNY   88  50  27 NE6       30.05S
BURLINGTON     SUNNY     93  46  19 CALM      30.02S
WRAY           MOSUNNY   95  50  21 NE9       29.98R
STERLING       MOSUNNY   90  54  29 E7          N/A
HOLYOKE        SUNNY     95  54  24 NE9       29.98S
FORT MORGAN    MOSUNNY   85  50  30 CALM      30.06S
$$

COZ086-089-092>099-020000-
...SOUTHEAST COLORADO...

CITY           SKY/WX    TMP DP  RH WIND       PRES   REMARKS
PUEBLO         CLOUDY    92  48  22 E6        30.05R
LA JUNTA       SUNNY     95  50  21 E12       30.00F
LAMAR          SUNNY     97  53  22 E9G17     29.94S
SPRINGFIELD      N/A     93  47  20 NE14      30.00S
$$


USA.gov is the U.S. government's official web portal to all federal, state and local government web resources and services.